Regional Weather Roundup
Issued by NWS Little Rock, AR

Home | Current Version | Previous Version | Graphics & Text | Print | Product List | Glossary On
Versions: 1 2 3 4 5 6 7 8 9 10 11 12 13 14 15 16 17 18 19 20 21 22 23 24 25 26 27 28 29 30 31 32 33 34 35 36 37 38 39 40 41 42 43 44 45 46 47 48 49 50
000
ASUS44 KLZK 021705
RWRLZK

WEATHER ROUNDUP FOR ARKANSAS
NATIONAL WEATHER SERVICE LITTLE ROCK AR
1200 PM CDT SUN AUG 02 2015

NOTE: "FAIR" INDICATES FEW OR NO CLOUDS BELOW 12,000 FEET WITH NO
SIGNIFICANT WEATHER AND/OR OBSTRUCTIONS TO VISIBILITY.

ARZ001-003-010-029-021800-
NORTHWEST ARKANSAS

CITY           SKY/WX    TMP DP  RH WIND       PRES   REMARKS
FAYETTEVILLE   SUNNY     87  68  52 SW7       30.02S HX  90
FORT SMITH     MOSUNNY   91  65  41 NE3       29.98F HX  93
HARRISON       MOSUNNY   89  68  49 SW3       30.02F HX  93
BENTONVILLE    SUNNY     88  66  48 S6        30.03F HX  90
ROGERS         SUNNY     88  67  49 SW12      30.03S HX  91
SILOAM SPGS    MOSUNNY   88  64  45 SW8       30.00F HX  89
HIGHFILL       SUNNY     89  69  51 SW8       30.02S HX  93
SPRINGDALE     PTSUNNY   86  66  51 SW8       30.04S HX  88
$$

ARZ004-005-016-021800-
NORTH CENTRAL ARKANSAS

CITY           SKY/WX    TMP DP  RH WIND       PRES   REMARKS
BATESVILLE     MOSUNNY   90  70  51 SE5       29.98F HX  95
FLIPPIN        MOSUNNY   88  68  51 CALM      29.97F HX  91
MTN HOME       SUNNY     87  69  54 CALM      29.99F HX  91
$$

ARZ040-041-021800-
WEST CENTRAL ARKANSAS

CITY           SKY/WX    TMP DP  RH WIND       PRES   REMARKS
MENA           SUNNY     93  59  31 SW5       30.02F HX  92
MOUNT IDA      SUNNY     91  58  32 CALM      29.99F HX  90
$$

ARZ009-017-025-026-028-021800-
NORTHEAST ARKANSAS

CITY           SKY/WX    TMP DP  RH WIND       PRES   REMARKS
JONESBORO      SUNNY     89  70  53 SW8       29.97F HX  94
NEWPORT        SUNNY     91  71  51 SE7       29.99F HX  97
WALNUT RIDGE   SUNNY     90  66  45 S8        29.97S HX  92
BLYTHEVILLE    SUNNY     89  71  55 CALM      29.98F HX  95
$$

ARZ022-023-033-042-044-021800-
CENTRAL ARKANSAS

CITY           SKY/WX    TMP DP  RH WIND       PRES   REMARKS
LITTLE ROCK    MOSUNNY   93  64  38 SE9       29.98F HX  94
N LITTLE ROCK  MOSUNNY   93  64  37 SE7       29.98F HX  94
JACKSONVILLE   SUNNY     94  63  35 VRB3      29.97F HX  95
SEARCY         SUNNY     91  70  49 SE5       29.99F HX  96
HOT SPRINGS    SUNNY     92  58  31 CALM      29.99F HX  91
RUSSELLVILLE   SUNNY     92  62  36 VRB7      29.98F HX  92
$$

ARZ036-021800-
EAST ARKANSAS

CITY           SKY/WX    TMP DP  RH WIND       PRES   REMARKS
WEST MEMPHIS   SUNNY     89  72  56 S3        29.97S HX  96
$$

ARZ050-053-066-070-073-021800-
SOUTHWEST ARKANSAS

CITY           SKY/WX    TMP DP  RH WIND       PRES   REMARKS
ARKADELPHIA    FAIR      94  63  35 VRB3      29.98F HX  95
CAMDEN         SUNNY     93  63  36 CALM      29.97F HX  94
TEXARKANA      SUNNY     93  59  31 VRB5      29.99S HX  92
EL DORADO      SUNNY     93  57  29 VRB5      29.98F HX  91
DE QUEEN       SUNNY     91  63  39 SW6       29.97F HX  92
$$

ARZ056-057-069-021800-
SOUTHEAST ARKANSAS

CITY           SKY/WX    TMP DP  RH WIND       PRES   REMARKS
PINE BLUFF     SUNNY     92  66  42 CALM      29.98F HX  94
STUTTGART      SUNNY     91  66  43 MISG      29.99S HX  94
MONTICELLO     SUNNY     93  64  38 VRB5      29.97F HX  94

$$




USA.gov is the U.S. government's official web portal to all federal, state and local government web resources and services.